Location: UBC Liquid-Mirror Observatory
(49.2876°N, 122.5728°W)
Time: 09:25:34
(UTC-08:00)

KITSAT 1 - Visible Passes

Search period start: 28 February 2015 00:00
Search period end: 10 March 2015 01:00
Orbit: 1311 x 1320 km, 66.1° (Epoch: 26 February)

Date Brightness Start Highest point End Pass type
(mag) Time Alt. Az. Time Alt. Az. Time Alt. Az.
28 Feb 10.8 19:00:28 10° NW 19:08:26 61° WSW 19:16:20 10° SSE visible
28 Feb 12.7 20:58:33 10° WNW 21:02:24 14° W 21:05:45 10° SW visible
01 Mar 11.4 19:16:45 10° NW 19:24:20 44° WSW 19:31:49 10° S visible
02 Mar 11.9 19:33:12 10° NW 19:40:08 31° WSW 19:46:53 10° SSW visible
03 Mar 12.5 19:49:57 10° WNW 19:55:51 22° WSW 20:01:25 10° SSW visible
04 Mar 12.8 20:07:24 10° WNW 20:11:28 14° W 20:15:01 10° SW visible
05 Mar 11.5 18:25:44 10° NW 18:33:22 45° WSW 18:40:53 10° S visible
06 Mar 12.1 18:42:10 10° NW 18:49:10 32° WSW 18:55:59 10° SSW visible
07 Mar 12.7 18:58:54 10° WNW 19:04:53 22° WSW 19:10:35 10° SSW visible
08 Mar 13.0 20:16:15 10° WNW 20:20:31 15° W 20:24:17 10° SW visible
09 Mar 13.5 07:03:11 10° ESE 07:04:38 11° E 07:06:40 10° E visible
